Cape Girardeau, MO

3:55 AM CDT on April 23, 2017 (GMT -0500)
Cape Girardeau Regional

Weather History for KCGI - June, 2014

Change the Weather History Date:

Tuesday, June 17, 2014

  Actual Average Record
Temperature  
Mean Temperature 84 °F 76 °F  
Max Temperature 92 °F 87 °F 98 °F (1990)
Min Temperature 76 °F 65 °F 48 °F (1961)
Degree Days  
Heating Degree Days 0 0  
Month to date heating degree days 0 1  
Since 1 June heating degree days 0 1  
Since 1 July heating degree days 4941 4387  
Cooling Degree Days 19 11  
Month to date cooling degree days 166 151  
Year to date cooling degree days 377 303  
Since 1 June cooling degree days 166 151  
Growing Degree Days 33 (Base 50)    
Moisture  
Dew Point 69 °F    
Average Humidity 66    
Maximum Humidity 87    
Minimum Humidity 44    
Precipitation  
Precipitation 0.00 in 0.12 in 1.67 in (2013)
Month to date precipitation 4.79 2.09  
Year to date precipitation 23.18 23.19  
Sea Level Pressure  
Sea Level Pressure 30.01 in    
Wind  
Wind Speed 11 mph (SSW)    
Max Wind Speed 21 mph    
Max Gust Speed 27 mph    
Visibility 10 miles    
Events      
T = Trace of Precipitation, MM = Missing Value Source: NWS Daily Summary

Daily Weather History Graph

Daily Weather History Graph

Search for Another Location

Airport or City:

Trip Planner

Search our weather history database for the weather conditions in past years. The results will help you decide how hot, cold, wet, or windy it might be!

Date:

Astronomy

Jun. 17, 2014 Rise Set
Actual Time 5:37 AM CDT 8:20 PM CDT
Civil Twilight 5:06 AM CDT 8:51 PM CDT
Nautical Twilight 4:27 AM CDT 9:30 PM CDT
Astronomical Twilight 3:44 AM CDT 10:14 PM CDT
Moon 11:56 PM CDT (6/17) 10:46 AM CDT (6/17)
Length of Visible Light 15h 45m
Length of Day
14h 43m
Waning Gibbous, 73% of the Moon is Illuminated
Jun 17
Waning Gibbous
Jun 19
Last Quarter
Jun 27
New
Jul 5
First Quarter
Jul 12
Full

Hourly Weather History & Observations

Time (CDT) Temp. Heat Index Dew Point Humidity Pressure Visibility Wind Dir Wind Speed Gust Speed Precip Events Conditions
12:53 AM 79.0 °F - 68.0 °F 69% 29.99 in 10.0 mi SSW 9.2 mph - N/A   Clear
1:53 AM 78.1 °F - 69.1 °F 74% 29.98 in 10.0 mi SSW 9.2 mph - N/A   Clear
2:53 AM 77.0 °F - 70.0 °F 79% 29.97 in 10.0 mi South 11.5 mph 19.6 mph N/A   Clear
3:53 AM 77.0 °F - 70.0 °F 79% 29.99 in 10.0 mi SSW 10.4 mph 18.4 mph N/A   Clear
4:53 AM 75.9 °F - 70.0 °F 82% 30.00 in 10.0 mi SSW 9.2 mph - N/A   Clear
5:53 AM 75.9 °F - 71.1 °F 85% 30.01 in 9.0 mi South 10.4 mph 19.6 mph N/A   Clear
6:53 AM 77.0 °F - 71.1 °F 82% 30.04 in 9.0 mi SSW 13.8 mph - N/A   Clear
7:53 AM 80.1 °F 83.8 °F 72.0 °F 76% 30.04 in 9.0 mi SW 12.7 mph 21.9 mph N/A   Clear
8:53 AM 82.9 °F 88.0 °F 72.0 °F 69% 30.06 in 10.0 mi SSW 12.7 mph - N/A   Clear
9:53 AM 84.9 °F 90.7 °F 72.0 °F 65% 30.06 in 10.0 mi SW 15.0 mph - N/A   Clear
10:53 AM 87.1 °F 92.8 °F 71.1 °F 59% 30.06 in 10.0 mi SW 11.5 mph - N/A   Partly Cloudy
11:53 AM 88.0 °F 92.9 °F 70.0 °F 55% 30.06 in 10.0 mi SSW 13.8 mph 19.6 mph N/A   Partly Cloudy
12:53 PM 89.1 °F 94.1 °F 70.0 °F 53% 30.04 in 10.0 mi SW 17.3 mph 26.5 mph N/A   Partly Cloudy
1:53 PM 91.0 °F 95.6 °F 69.1 °F 48% 30.01 in 10.0 mi SSW 15.0 mph 21.9 mph N/A   Clear
2:53 PM 91.9 °F 96.9 °F 69.1 °F 47% 30.00 in 10.0 mi SW 11.5 mph 21.9 mph N/A   Partly Cloudy
3:53 PM 91.0 °F 94.3 °F 66.9 °F 45% 29.99 in 10.0 mi SSW 12.7 mph - N/A   Clear
4:53 PM 91.0 °F 94.3 °F 66.9 °F 45% 29.99 in 10.0 mi SW 13.8 mph - N/A   Clear
5:53 PM 90.0 °F 92.4 °F 66.0 °F 45% 29.98 in 10.0 mi SW 12.7 mph 20.7 mph N/A   Clear
6:53 PM 87.1 °F 89.9 °F 66.9 °F 51% 29.98 in 10.0 mi SW 9.2 mph - N/A   Clear
7:53 PM 82.0 °F 85.5 °F 69.1 °F 65% 29.99 in 10.0 mi SSW 4.6 mph - N/A   Clear
8:53 PM 80.1 °F 82.3 °F 66.9 °F 64% 30.00 in 10.0 mi SSW 5.8 mph - N/A   Clear
9:53 PM 82.0 °F 84.5 °F 66.9 °F 60% 30.00 in 10.0 mi SSW 9.2 mph - N/A   Clear
10:53 PM 79.0 °F - 68.0 °F 69% 30.00 in 10.0 mi South 8.1 mph - N/A   Clear
11:53 PM 80.1 °F 82.7 °F 68.0 °F 67% 30.00 in 10.0 mi SSW 8.1 mph - N/A   Clear